Cape Girardeau, MO

9:26 PM CDT on April 28, 2017 (GMT -0500)
Cape Girardeau Regional

Weather History for KCGI - March, 2014

Change the Weather History Date:

Friday, March 28, 2014

  Actual Average Record
Temperature  
Mean Temperature 56 °F 51 °F  
Max Temperature 65 °F 63 °F 83 °F (1985)
Min Temperature 46 °F 39 °F 25 °F (2001)
Degree Days  
Heating Degree Days 9 14  
Month to date heating degree days 662 518  
Since 1 July heating degree days 4587 4015  
Cooling Degree Days 0 0  
Month to date cooling degree days 0 0  
Year to date cooling degree days 0 0  
Growing Degree Days 5 (Base 50)    
Moisture  
Dew Point 49 °F    
Average Humidity 69    
Maximum Humidity 93    
Minimum Humidity 44    
Precipitation  
Precipitation 0.41 in 0.15 in 2.43 in (1975)
Month to date precipitation 2.25 3.92  
Year to date precipitation 5.39 10.80  
Sea Level Pressure  
Sea Level Pressure 29.89 in    
Wind  
Wind Speed 12 mph (NW)    
Max Wind Speed 29 mph    
Max Gust Speed 35 mph    
Visibility 8 miles    
Events Rain , Thunderstorm    
T = Trace of Precipitation, MM = Missing Value Source: NWS Daily Summary

Daily Weather History Graph

Daily Weather History Graph

Search for Another Location

Airport or City:

Trip Planner

Search our weather history database for the weather conditions in past years. The results will help you decide how hot, cold, wet, or windy it might be!

Date:

Astronomy

Mar. 28, 2014 Rise Set
Actual Time 6:49 AM CDT 7:17 PM CDT
Civil Twilight 6:23 AM CDT 7:43 PM CDT
Nautical Twilight 5:53 AM CDT 8:14 PM CDT
Astronomical Twilight 5:21 AM CDT 8:45 PM CDT
Moon 5:17 AM CDT (3/28) 5:16 PM CDT (3/28)
Length of Visible Light 13h 19m
Length of Day
12h 27m
Waning Crescent, 6% of the Moon is Illuminated
Mar 28
Waning Crescent
Mar 30
New
Apr 7
First Quarter
Apr 15
Full
Apr 22
Last Quarter

Hourly Weather History & Observations

Time (CDT) Temp. Windchill Dew Point Humidity Pressure Visibility Wind Dir Wind Speed Gust Speed Precip Events Conditions
12:53 AM 59.0 °F - 55.0 °F 87% 29.75 in 8.0 mi South 20.7 mph 28.8 mph N/A   Overcast
1:15 AM 59.0 °F - 55.9 °F 90% 29.77 in 5.0 mi SSW 21.9 mph 31.1 mph 0.00 in Rain , Thunderstorm Rain
1:20 AM 59.0 °F - 55.9 °F 90% 29.76 in 1.8 mi South 25.3 mph 34.5 mph 0.12 in Rain , Thunderstorm Heavy Rain
1:24 AM 57.9 °F - 57.0 °F 97% 29.75 in 0.8 mi South 25.3 mph 34.5 mph 0.30 in Rain , Thunderstorm Heavy Thunderstorms and Rain
1:30 AM 57.9 °F - 57.0 °F 97% 29.77 in 1.0 mi SSW 23.0 mph 34.5 mph 0.31 in Rain , Thunderstorm Heavy Thunderstorms and Rain
1:33 AM 59.0 °F - 57.0 °F 93% 29.76 in 2.5 mi South 24.2 mph 34.5 mph 0.32 in Rain , Thunderstorm Light Thunderstorms and Rain
1:38 AM 59.0 °F - 55.9 °F 90% 29.76 in 6.0 mi SSW 25.3 mph - 0.32 in Rain , Thunderstorm Light Thunderstorms and Rain
1:53 AM 57.9 °F - 53.1 °F 84% 29.78 in 10.0 mi WSW 19.6 mph - 0.32 in Thunderstorm Overcast
2:06 AM 57.9 °F - 54.0 °F 87% 29.78 in 10.0 mi SW 12.7 mph - N/A   Overcast
2:15 AM 59.0 °F - 55.0 °F 87% 29.78 in 10.0 mi SSW 12.7 mph - N/A   Overcast
2:45 AM 59.0 °F - 57.0 °F 93% 29.77 in 10.0 mi SSW 12.7 mph - N/A   Overcast
2:53 AM 59.0 °F - 57.0 °F 93% 29.77 in 10.0 mi SW 13.8 mph - N/A   Overcast
3:26 AM 59.0 °F - 55.0 °F 87% 29.79 in 10.0 mi SW 11.5 mph - N/A   Overcast
3:53 AM 59.0 °F - 55.9 °F 90% 29.78 in 10.0 mi WSW 12.7 mph - N/A   Overcast
4:20 AM 57.9 °F - 55.9 °F 93% 29.80 in 10.0 mi West 8.1 mph - N/A   Overcast
4:38 AM 57.0 °F - 55.9 °F 96% 29.81 in 10.0 mi West 5.8 mph - N/A   Overcast
4:53 AM 57.9 °F - 54.0 °F 87% 29.82 in 10.0 mi WNW 8.1 mph - N/A   Overcast
5:53 AM 55.0 °F - 48.9 °F 80% 29.87 in 10.0 mi NNW 11.5 mph - N/A   Overcast
6:14 AM 53.1 °F - 46.9 °F 80% 29.89 in 10.0 mi NNW 13.8 mph - N/A   Overcast
6:53 AM 48.0 °F - 41.0 °F 77% 29.91 in 10.0 mi North 16.1 mph - N/A   Overcast
7:53 AM 46.9 °F - 39.0 °F 74% 29.97 in 10.0 mi North 5.8 mph - N/A   Scattered Clouds
8:53 AM 50.0 °F - 41.0 °F 71% 29.98 in 10.0 mi North 13.8 mph - N/A   Clear
9:53 AM 51.1 °F - 41.0 °F 68% 30.00 in 10.0 mi North 12.7 mph - N/A   Clear
10:53 AM 53.1 °F - 42.1 °F 66% 30.00 in 10.0 mi North 10.4 mph - N/A   Clear
11:53 AM 57.0 °F - 42.1 °F 57% 30.00 in 10.0 mi North 9.2 mph - N/A   Clear
12:53 PM 59.0 °F - 42.1 °F 53% 30.01 in 10.0 mi East 12.7 mph - N/A   Clear
1:53 PM 62.1 °F - 43.0 °F 50% 29.99 in 10.0 mi NE 10.4 mph - N/A   Clear
2:53 PM 64.0 °F - 43.0 °F 46% 29.96 in 10.0 mi NE 9.2 mph - N/A   Clear
3:53 PM 63.0 °F - 42.1 °F 46% 29.95 in 10.0 mi ENE 12.7 mph - N/A   Clear
4:53 PM 62.1 °F - 43.0 °F 50% 29.95 in 10.0 mi NNE 10.4 mph - N/A   Clear
5:53 PM 59.0 °F - 44.1 °F 58% 29.97 in 10.0 mi North 9.2 mph - N/A   Clear
6:53 PM 55.9 °F - 42.1 °F 60% 30.02 in 10.0 mi NNW 13.8 mph - N/A   Clear
7:53 PM 54.0 °F - 41.0 °F 62% 30.01 in 10.0 mi North 13.8 mph - N/A   Clear
8:53 PM 52.0 °F - 41.0 °F 66% 30.02 in 10.0 mi North 12.7 mph 23.0 mph N/A   Overcast
9:53 PM 50.0 °F - 42.1 °F 74% 30.03 in 9.0 mi North 12.7 mph - 0.00 in Rain Light Rain
10:53 PM 48.0 °F - 43.0 °F 83% 30.06 in 4.0 mi North 11.5 mph - N/A Rain Rain
11:53 PM 46.0 °F 39.3 °F 43.0 °F 89% 30.02 in 4.0 mi North 16.1 mph - N/A Rain Rain